Preview of NWS' New Version of Forecast
This preview is not operational and should not be used for support decisions.

Regional Weather Roundup (RWR)

Issued by National Weather Service (NWS)

                            
000
ASUS45 KCYS 221510
RWRWY 

WYOMING REGIONAL WEATHER ROUNDUP
NATIONAL WEATHER SERVICE CHEYENNE WY
900 AM MDT MON APR 22 2019

NOTE:  "FAIR" INDICATES FEW OR NO CLOUDS BELOW 12,000 FEET
WITH NO SIGNIFICANT WEATHER AND/OR OBSTRUCTIONS TO VISIBILITY.

WYZ001-221600-
YELLOWSTONE NATIONAL PARK
  
CITY           SKY/WX    TMP DP  RH WIND       PRES   REMARKS
LK YELLOWSTONE   N/A     34  26  72 SE3       30.26R                  
W YELLOWSTONE  NOT AVBL                                               

$$
WYZ002>013-054>058-071-098>099-221600-
NORTHERN WYOMING
  
CITY           SKY/WX    TMP DP  RH WIND       PRES   REMARKS
JACKSON        CLOUDY    37  34  89 N8        30.23R WCI  31          
CODY           CLOUDY    38  35  89 CALM      30.29R                  
GREYBULL       LGT RAIN  42  40  92 CALM      30.28R                  
WORLAND        CLOUDY    42  39  89 NE3       30.28R                  
SHERIDAN       CLOUDY    49  40  71 E12       30.28S                  
BUFFALO        CLOUDY    43  38  82 S7        30.28S                  
GILLETTE       CLOUDY    43  40  89 NE5       30.29R                  
HULETT         CLOUDY    43  41  93 CALM      30.30                   
NEWCASTLE      CLOUDY    43  34  70 CALM      30.29                   

$$
WYZ014>020-022>026-101>103-221600-
CENTRAL WYOMING
  
CITY           SKY/WX    TMP DP  RH WIND       PRES   REMARKS
BIG PINEY      LGT RAIN  35  33  92 CALM      30.24R                  
PINEDALE       LGT RAIN  36  34  93 NW7       30.24  WCI  30          
DUBOIS         CLOUDY    34  32  93 SE7       30.24S WCI  28          
LANDER         CLOUDY    38  35  89 CALM      30.26S                  
RIVERTON       LGT RAIN  39  35  86 NE5       30.27S                  
CASPER         CLOUDY    38  35  89 E17       30.27R WCI  28          
DOUGLAS        LGT RAIN  39  37  92 S7        30.31R WCI  34          

$$
WYZ021-027>030-104>119-221600-
SOUTHERN WYOMING
  
CITY           SKY/WX    TMP DP  RH WIND       PRES   REMARKS
EVANSTON       LGT SNOW  34  32  92 N6        30.21  FOG     WCI  29  
KEMMERER       CLOUDY    34  32  93 NE17      30.22  FOG     WCI  23  
ROCK SPRINGS   CLOUDY    36  33  89 NE17G23   30.22R WCI  26          
DIXON          PTSUNNY   44  33  67 CALM      30.18S                  
RAWLINS        CLOUDY    39  35  86 NE16      30.21S WCI  30          
SARATOGA       PTSUNNY   43  36  75 E6        30.19S                  
LARAMIE        CLOUDY    37  34  89 E8        30.22S WCI  31          
CHEYENNE       CLOUDY    35  34  96 N14G22    30.26R WCI  26          
TORRINGTON     CLOUDY    41  37  86 N5        30.28R                  
PINE BLUFFS    CLOUDY    36  36 100 N15       30.28S WCI  26          

$$